sat.trackr.live / text

‹ back to catalog

STARLINK-4630

NORAD 53680 · 2022-105AJ

PAYLOAD ACTIVE UNKNOWN

§ Identity

Operator
Country
US
Launch date
2022-08-31
Launch site
AFWTR
Launch vehicle
Mass (kg)
RCS (m²)

Purposes: comms

External: N2YO · Heavens-Above · Gunter

§ Orbital elements

Epoch: 2026-05-25T02:42:57.924288Z

Period
95.64 min
Inclination
97.4513°
Eccentricity
0.0002001
Mean motion
15.05656696 rev/d
Perigee alt
548.1 km
Apogee alt
550.9 km
Semi-major
6,927.6 km
B*
-9.9225e-5
RAAN
26.1668°
Arg perigee
85.2650°
Mean anomaly
274.8806°
Rev number
20,480

§ Raw data

STARLINK-46301 53680U 22105AJ  26145.11317042 -.00001490  00000+0 -99225-4 0  99952 53680  97.4513  26.1668 0002001  85.2650 274.8806 15.05656696204809

JSON: /api/v1/satellites/53680 · /tle

For live sub-satellite position, see the globe view (requires WebGL).

§ Visibility from observer

Set your observer location to see the next 7 days of passes ≥ 10°. The values pass through the URL so the page stays shareable.

No JS? Fill the form by hand. The geolocation button needs JavaScript.